Location: Chrome
(40.5765°N, 74.2163°W)
Time: 00:09:10
(UTC+00:00)

Cosmos 1331 Rocket - Pass Details

Date: 06 December 2019
Orbit: 749 x 779 km, 74.0° (Epoch: 19 January)

Event Time Altitude Azimuth Distance (km) Brightness Sun altitude
Rises 21:52:24 0° 340° (NNW) 3,236 7.2 -4.6°
Reaches altitude 10° 21:54:46 10° 341° (NNW) 2,310 6.4 -5.0°
Maximum altitude 22:00:02 88° 73° (ENE) 776 4.1 -6.0°
Drops below altitude 10° 22:05:18 10° 162° (SSE) 2,313 6.6 -6.9°
Sets 22:07:40 0° 162° (SSE) 3,239 7.3 -7.3°
